Date,TemperatureHighF,TemperatureAvgF,TemperatureLowF,DewpointHighF,DewpointAvgF,DewpointLowF,HumidityHigh,HumidityAvg,HumidityLow,PressureMaxIn,PressureMinIn,WindSpeedMaxMPH,WindSpeedAvgMPH,GustSpeedMaxMPH,PrecipitationSumIn
2013-4-1,72,59,54,59,35,-33,100,56,2,29.90,29.77,5,1,20,0.05
2013-4-2,61,47,35,61,43,12,100,91,21,30.14,29.95,2,0,13,0.00
2013-4-3,60,46,35,60,46,35,100,100,100,30.27,30.12,1,0,10,0.00
2013-4-4,50,42,38,50,42,38,100,100,100,30.35,29.95,1,0,10,0.71
2013-4-5,62,48,40,62,48,40,100,100,100,29.99,29.86,2,0,7,0.09
2013-4-6,65,50,39,65,50,39,100,100,100,30.25,29.99,1,0,12,0.00
2013-4-7,72,55,35,72,51,35,100,90,30,30.27,30.08,7,1,16,0.00
2013-4-8,78,66,56,74,44,-4,100,60,6,30.14,30.01,6,1,22,0.00
2013-4-9,85,72,60,64,40,-26,100,47,2,30.14,30.01,5,2,18,0.00
2013-4-10,87,75,64,70,46,6,100,50,7,30.05,29.89,6,2,17,0.00
2013-4-11,81,73,64,73,36,-33,100,46,1,29.95,29.75,7,2,20,0.00
2013-4-12,80,71,63,73,41,-36,100,53,1,29.76,29.56,8,3,25,1.23
2013-4-13,74,62,49,63,21,-45,100,34,1,29.97,29.72,2,0,12,0.00
2013-4-14,82,63,44,67,47,28,100,64,23,30.07,29.97,2,0,12,0.00
2013-4-15,73,65,58,68,42,-14,100,65,4,30.18,29.99,3,0,15,0.04
2013-4-16,76,65,57,67,47,-8,100,72,4,30.28,30.16,2,0,6,0.00
2013-4-17,83,69,57,71,37,-43,100,56,1,30.19,30.07,5,1,12,0.00
2013-4-18,80,70,60,72,40,-35,100,55,1,30.16,30.00,3,1,16,0.00
2013-4-19,82,71,66,74,48,-31,100,68,1,30.01,29.67,8,3,30,0.52
2013-4-20,65,56,44,61,39,-43,100,74,1,30.24,29.77,7,1,22,0.10
2013-4-21,63,50,40,63,50,40,100,100,100,30.47,30.24,2,0,12,0.00
2013-4-22,63,49,36,63,49,36,100,100,100,30.46,30.25,2,0,12,0.00
2013-4-23,67,54,48,66,53,26,100,97,21,30.25,30.10,1,0,10,0.04
2013-4-24,76,62,46,72,48,14,100,74,12,30.12,29.93,7,2,21,0.00
2013-4-25,71,62,50,71,58,36,100,91,29,30.25,29.97,5,0,12,0.00
2013-4-26,73,58,45,70,50,32,100,84,28,30.39,30.25,1,0,9,0.00
2013-4-27,74,61,50,70,48,-1,100,74,7,30.35,30.23,2,0,8,0.00
2013-4-28,61,58,55,61,58,55,100,100,100,30.23,30.09,0,0,9,0.36
2013-4-29,69,61,55,69,47,-39,100,80,1,30.09,29.94,0,0,4,1.00
2013-4-30,66,60,56,66,37,-1,100,55,8,30.14,29.98,0,0,4,0.02